This is the latest recevied weather packets stored in our database for station/object KD4UFD. If no packets are shown the sender has not sent any weather packets the latest 10 day(s).
| Time | Temp. | Humidity | Pressure | Rain* | Wind** | Luminosity | Snow |
|---|---|---|---|---|---|---|---|
| 1777476098 | 19.44° C | 86% | 1012.8 hPa | 0 mm | - | 85 W/m² | - |
| 1777475793 | 19.44° C | 86% | 1012.7 hPa | 0 mm | - | 124 W/m² | - |
| 1777475490 | 19.44° C | 86% | 1012.4 hPa | 0 mm | - | 96 W/m² | - |
| 1777475186 | 19.44° C | 85% | 1012.5 hPa | 0 mm | - | 74 W/m² | - |
| 1777474882 | 19.44° C | 85% | 1012.7 hPa | 0 mm | - | 93 W/m² | - |
| 1777474577 | 19.44° C | 85% | 1012.4 hPa | 0 mm | - | 124 W/m² | - |
| 1777474275 | 19.44° C | 84% | 1012.3 hPa | 0 mm | - | 189 W/m² | - |
| 1777473971 | 19.44° C | 84% | 1012.2 hPa | 0 mm | - | 205 W/m² | - |
| 1777473669 | 20° C | 83% | 1012.4 hPa | 0 mm | - | 246 W/m² | - |
| 1777473365 | 20° C | 83% | 1012.6 hPa | 0 mm | - | 259 W/m² | - |
| 1777473061 | 18.89° C | 86% | 1012.5 hPa | 0 mm | - | 377 W/m² | - |
| 1777472757 | 18.89° C | 86% | 1012.4 hPa | 0 mm | - | 164 W/m² | - |
| 1777472454 | 18.89° C | 86% | 1012.7 hPa | 0 mm | - | 139 W/m² | - |
| 1777472152 | 18.89° C | 86% | 1012.5 hPa | 0 mm | - | 137 W/m² | - |
| 1777471852 | 18.89° C | 86% | 1012.4 hPa | 0 mm | - | 266 W/m² | - |
| 1777471549 | 18.89° C | 86% | 1012.6 hPa | 0 mm | - | 271 W/m² | - |
| 1777471245 | 18.89° C | 85% | 1012.5 hPa | 0 mm | - | 171 W/m² | - |
| 1777470942 | 18.89° C | 85% | 1012.5 hPa | 0 mm | - | 186 W/m² | - |
| 1777470639 | 18.89° C | 85% | 1012.7 hPa | 0 mm | - | 206 W/m² | - |
| 1777470335 | 18.89° C | 85% | 1012.4 hPa | 0 mm | - | 180 W/m² | - |
| 1777470032 | 19.44° C | 84% | 1012.7 hPa | 0 mm | - | 280 W/m² | - |
| 1777469727 | 18.89° C | 85% | 1012.5 hPa | 0 mm | - | 213 W/m² | - |
| 1777469424 | 18.89° C | 86% | 1012.5 hPa | 0 mm | - | 138 W/m² | - |
| 1777469120 | 18.89° C | 87% | 1012.8 hPa | 0 mm | - | 248 W/m² | - |
| 1777468819 | 18.89° C | 86% | 1012.9 hPa | 0 mm | - | 111 W/m² | - |
* Rain latest hour (hover to see other rain measurements)
** Current wind speed in m/s (hover to see current wind gust speed)